Year,Month,Day,Hour,Minute,Value (Times are PST for temperature in C)
2012,03,20,16,09,5.20
2012,03,20,16,10,5.20
2012,03,20,18,23,3.00
2012,03,20,18,24,3.00
2012,03,20,18,25,3.00
2012,03,20,18,26,3.00
2012,03,20,18,27,2.90
2012,03,20,18,28,2.90
2012,03,20,18,29,2.90
2012,03,20,18,30,2.90
2012,03,20,18,31,2.90
2012,03,20,18,32,2.90
2012,03,20,18,33,2.90
2012,03,20,18,34,2.90
2012,03,20,18,35,2.90
2012,03,20,18,36,2.90
2012,03,20,18,37,2.90
2012,03,20,18,38,2.80
2012,03,20,18,39,2.80
2012,03,20,18,40,2.80
2012,03,20,18,41,2.80
2012,03,20,18,42,2.80
2012,03,20,18,43,2.70
2012,03,20,18,44,2.70
2012,03,20,18,45,2.70
2012,03,20,18,46,2.70
2012,03,20,18,47,2.70
2012,03,20,18,48,2.70
2012,03,20,18,49,2.70
2012,03,20,18,50,2.70
2012,03,20,18,51,2.70
2012,03,20,18,52,2.70
2012,03,20,18,53,2.80
2012,03,20,18,54,2.80
2012,03,20,18,55,2.80
2012,03,20,18,56,2.80
2012,03,20,18,57,2.80
2012,03,20,18,58,2.80
2012,03,20,18,59,2.80
2012,03,20,19,00,2.80
2012,03,20,19,01,2.80
2012,03,20,19,02,2.80
2012,03,20,19,03,2.80
2012,03,20,19,04,2.80
2012,03,20,19,05,2.80
2012,03,20,19,06,2.80
2012,03,20,19,07,2.80
2012,03,20,19,08,2.80
2012,03,20,19,09,2.80
2012,03,20,19,10,2.80
2012,03,20,19,11,2.70
2012,03,20,19,12,2.70
2012,03,20,19,13,2.70
2012,03,20,19,14,2.70
2012,03,20,19,15,2.70
2012,03,20,19,16,2.70
2012,03,20,19,17,2.70
2012,03,20,19,18,2.60
2012,03,20,19,19,2.60
2012,03,20,19,20,2.60
2012,03,20,19,21,2.60
2012,03,20,19,22,2.60
2012,03,20,19,23,2.60
2012,03,20,19,24,2.60
2012,03,20,19,25,2.50
2012,03,20,19,26,2.50
2012,03,20,19,27,2.50
2012,03,20,19,28,2.30
2012,03,20,19,29,2.30
2012,03,20,19,30,2.20
2012,03,20,19,31,2.10
2012,03,20,19,32,2.10
2012,03,20,19,33,2.10
2012,03,20,19,34,2.20
2012,03,20,19,35,2.20
2012,03,20,19,36,2.30
2012,03,20,19,37,2.30
2012,03,20,19,38,2.40
2012,03,20,19,39,2.50
2012,03,20,19,40,2.60
2012,03,20,19,41,2.60
2012,03,20,19,42,2.70
2012,03,20,19,43,2.70
2012,03,20,19,44,2.70
2012,03,20,19,45,2.70
2012,03,20,19,46,2.70
2012,03,20,19,47,2.80
2012,03,20,19,48,2.80
2012,03,20,19,49,2.90
2012,03,20,19,50,2.90
2012,03,20,19,51,2.90
2012,03,20,19,52,3.00
2012,03,20,19,53,3.00
2012,03,20,19,54,3.00
2012,03,20,19,55,3.00
2012,03,20,19,56,3.10
2012,03,20,19,57,3.10
2012,03,20,19,58,3.10
2012,03,20,19,59,3.10
2012,03,20,20,00,3.10
2012,03,20,20,01,3.10
2012,03,20,20,02,3.10
2012,03,20,20,03,3.10
2012,03,20,20,04,3.20
2012,03,20,20,05,3.20
2012,03,20,20,06,3.20
2012,03,20,20,07,3.20
2012,03,20,20,08,3.20
2012,03,20,20,09,3.20
2012,03,20,20,10,3.20
2012,03,20,20,11,3.20
2012,03,20,20,12,3.20
2012,03,20,20,13,3.20
2012,03,20,20,14,3.30
2012,03,20,20,15,3.30
2012,03,20,20,16,3.30
2012,03,20,20,17,3.30
2012,03,20,20,18,3.20
2012,03,20,20,19,3.20
2012,03,20,20,20,3.30
2012,03,20,20,21,3.20
2012,03,20,20,22,3.30
2012,03,20,20,23,3.20
2012,03,20,20,24,3.20
2012,03,20,20,25,3.20
2012,03,20,20,26,3.20
2012,03,20,20,27,3.20
2012,03,20,20,28,3.20
2012,03,20,20,29,3.20
2012,03,20,20,30,3.20
2012,03,20,20,31,3.20
2012,03,20,20,32,3.20
2012,03,20,20,33,3.30
2012,03,20,20,34,3.30
2012,03,20,20,35,3.30
2012,03,20,20,36,3.30
2012,03,20,20,37,3.30
2012,03,20,20,38,3.40
2012,03,20,20,39,3.40
2012,03,20,20,40,3.40
2012,03,20,20,41,3.40
2012,03,20,20,42,3.40
2012,03,20,20,43,3.30
2012,03,20,20,44,3.20
2012,03,20,20,45,3.00
2012,03,20,20,46,2.90
2012,03,20,20,47,2.70
2012,03,20,20,48,2.60
2012,03,20,20,49,2.60
2012,03,20,20,50,2.60
2012,03,20,20,51,2.50
2012,03,20,20,52,2.50
2012,03,20,20,53,2.50
2012,03,20,20,54,2.50
2012,03,20,20,55,2.50
2012,03,20,20,56,2.50
2012,03,20,20,57,2.40
2012,03,20,20,58,2.40
2012,03,20,20,59,2.40
2012,03,20,21,00,2.40
2012,03,20,21,01,2.40
2012,03,20,21,02,2.40
2012,03,20,21,03,2.30
2012,03,20,21,04,2.30
2012,03,20,21,05,2.30
2012,03,20,21,06,2.30
2012,03,20,21,07,2.30
2012,03,20,21,08,2.30
2012,03,20,21,09,2.20
2012,03,20,21,10,2.20
2012,03,20,21,11,2.20
2012,03,20,21,12,2.20
2012,03,20,21,13,2.10
2012,03,20,21,14,2.10
2012,03,20,21,15,2.10
2012,03,20,21,16,2.10
2012,03,20,21,17,2.10
2012,03,20,21,18,2.10
2012,03,20,21,19,2.10
2012,03,20,21,20,2.10
2012,03,20,21,21,2.00
2012,03,20,21,22,2.00
2012,03,20,21,23,2.00
2012,03,20,21,24,2.00
2012,03,20,21,25,1.90
2012,03,20,21,26,1.90
2012,03,20,21,27,1.90
2012,03,20,21,28,1.90
2012,03,20,21,29,1.90
2012,03,20,21,30,1.90
2012,03,20,21,31,1.80
2012,03,20,21,32,1.80
2012,03,20,21,33,1.80
2012,03,20,21,34,1.80
2012,03,20,21,35,1.80
2012,03,20,21,36,1.80
2012,03,20,21,37,1.80
2012,03,20,21,38,1.80
2012,03,20,21,39,1.80
2012,03,20,21,40,1.70
2012,03,20,21,41,1.70
2012,03,20,21,42,1.70
2012,03,20,21,43,1.70
2012,03,20,21,44,1.80
2012,03,20,21,45,1.80
2012,03,20,21,46,1.80
2012,03,20,21,47,1.80
2012,03,20,21,48,1.80
2012,03,20,21,49,1.80
2012,03,20,21,50,1.70
2012,03,20,21,51,1.80
2012,03,20,21,52,1.80
2012,03,20,21,53,1.80
2012,03,20,21,54,1.80
2012,03,20,21,55,1.80
2012,03,20,21,56,1.80
2012,03,20,21,57,1.80
2012,03,20,21,58,1.80
2012,03,20,21,59,1.80
2012,03,20,22,00,1.80
2012,03,20,22,01,1.80
2012,03,20,22,02,1.80
2012,03,20,22,03,1.80
2012,03,20,22,04,1.90
2012,03,20,22,05,1.90
2012,03,20,22,06,2.00
2012,03,20,22,07,2.00
2012,03,20,22,08,2.10
2012,03,20,22,09,2.20
2012,03,20,22,10,2.30
2012,03,20,22,11,2.30
2012,03,20,22,12,2.40
2012,03,20,22,13,2.40
2012,03,20,22,14,2.40
2012,03,20,22,15,2.40
2012,03,20,22,16,2.40
2012,03,20,22,17,2.30
2012,03,20,22,18,2.30
2012,03,20,22,19,2.20
2012,03,20,22,20,2.20
2012,03,20,22,21,2.20
2012,03,20,22,22,2.20
2012,03,20,22,23,2.10
2012,03,20,22,24,2.10
2012,03,20,22,25,2.10
2012,03,20,22,26,2.10
2012,03,20,22,27,2.10
2012,03,20,22,28,2.10
2012,03,20,22,29,2.00
2012,03,20,22,30,2.00
2012,03,20,22,31,2.00
2012,03,20,22,32,2.00
2012,03,20,22,33,2.00
2012,03,20,22,34,2.00
2012,03,20,22,35,2.00
2012,03,20,22,36,2.00
2012,03,20,22,37,2.00
2012,03,20,22,38,2.00
2012,03,20,22,39,2.00
2012,03,20,22,40,2.00
2012,03,20,22,41,2.00
2012,03,20,22,42,1.90
2012,03,20,22,43,1.90
2012,03,20,22,44,1.90
2012,03,20,22,45,1.90
2012,03,20,22,46,1.90
2012,03,20,22,47,1.90
2012,03,20,22,48,1.90
2012,03,20,22,49,1.90
2012,03,20,22,50,1.90
2012,03,20,22,51,1.80
2012,03,20,22,52,1.80
2012,03,20,22,53,1.80
2012,03,20,22,54,1.80
2012,03,20,22,55,1.80
2012,03,20,22,56,1.80
2012,03,20,22,57,1.80
2012,03,20,22,58,1.80
2012,03,20,22,59,1.80
2012,03,20,23,00,1.80
2012,03,20,23,01,1.80
2012,03,20,23,02,1.80
2012,03,20,23,03,1.70
2012,03,20,23,04,1.70
2012,03,20,23,05,1.70
2012,03,20,23,06,1.70
2012,03,20,23,07,1.70
2012,03,20,23,08,1.70
2012,03,20,23,09,1.70
2012,03,20,23,10,1.60
2012,03,20,23,11,1.60
2012,03,20,23,12,1.60
2012,03,20,23,13,1.60
2012,03,20,23,14,1.60
2012,03,20,23,15,1.60
2012,03,20,23,16,1.50
2012,03,20,23,17,1.50
2012,03,20,23,18,1.50
2012,03,20,23,19,1.50
2012,03,20,23,20,1.50
2012,03,20,23,21,1.50
2012,03,20,23,22,1.50
2012,03,20,23,23,1.50
2012,03,20,23,24,1.50
2012,03,20,23,25,1.50
2012,03,20,23,26,1.50
2012,03,20,23,27,1.60
2012,03,20,23,28,1.60
2012,03,20,23,29,1.60
2012,03,20,23,30,1.60
2012,03,20,23,31,1.60
2012,03,20,23,32,1.70
2012,03,20,23,33,1.80
2012,03,20,23,34,1.90
2012,03,20,23,35,2.00
2012,03,20,23,36,2.10
2012,03,20,23,37,2.20
2012,03,20,23,38,2.30
2012,03,20,23,39,2.30
2012,03,20,23,40,2.40
2012,03,20,23,41,2.50
2012,03,20,23,42,2.70
2012,03,20,23,43,2.90
2012,03,20,23,44,3.00
2012,03,20,23,45,3.10
2012,03,20,23,46,3.20
2012,03,20,23,47,3.30
2012,03,20,23,48,3.30
2012,03,20,23,49,3.40
2012,03,20,23,50,3.40
2012,03,20,23,51,3.40
2012,03,20,23,52,3.40
2012,03,20,23,53,3.40
2012,03,20,23,54,3.40
2012,03,20,23,55,3.50
2012,03,20,23,56,3.50
2012,03,20,23,57,3.60
2012,03,20,23,58,3.60
2012,03,20,23,59,3.60
